Regional Weather Roundup
Issued by NWS Bismarck, ND

Home | Current Version | Previous Version | Text Only | Print | Product List | Glossary On
Versions: 1 2 3 4 5 6 7 8 9 10 11 12 13 14 15 16 17 18 19 20 21 22 23 24 25 26 27 28 29 30 31 32 33 34 35 36 37 38 39 40 41 42 43 44 45 46 47 48 49 50
000
ASUS43 KBIS 210010
RWRBIS

NWR BROADCAST TEXT
NATIONAL WEATHER SERVICE BISMARCK ND
600 PM CST SAT DEC 20 2014

NOTE: "FAIR" INDICATES FEW OR NO CLOUDS BELOW 12,000 FEET WITH NO
SIGNIFICANT WEATHER AND/OR OBSTRUCTIONS TO VISIBILITY.


CITY           SKY/WX    TMP DP  RH WIND       PRES   REMARKS
WILLISTON      PTCLDY    34  28  79 W7        29.76F
MINOT          CLEAR     25  22  88 S7        29.77F WCI  17
MINOT AFB      PTCLDY    21  21  99 S3        29.76F
BISMARCK       CLEAR     23  21  92 SE6       29.83S WCI  16
DICKINSON      CLEAR     34  24  67 W7        29.78F
GARRISON         N/A     28  26  92 CALM      29.78F
HETTINGER ARPT PTCLDY    33  24  69 W5        29.83F
JAMESTOWN      CLOUDY    30  26  85 S10       29.85S
BEACH          FAIR      36  27  69 SW8       29.81F
CARRINGTON     MOCLDY    27  27 100 MISG      29.83F
CROSBY         FAIR      34  34 100 SW12      29.74S
HARVEY         FAIR      27  27 100 S5        29.81S
HAZEN          FAIR      25  23  93 CALM      29.80S
LINTON         FAIR      28  28 100 S12       29.83F WCI  18
MANDAN         FAIR      30  27  86 S8        29.82S
OAKES            N/A     28  28 100 S13       29.90F FOG     WCI  18
RUGBY          CLOUDY    25  25 100 SE6       29.80S FOG     WCI  18
STANLEY        LGT SNOW  32  32 100 W10       29.76S
TIOGA          LGT RAIN  32  32 100 SW8       29.77F
WATFORD CITY   FAIR      36  28  75 SW6       29.76S
$$

CITY           SKY/WX    TMP DP  RH WIND       PRES   REMARKS
GRAND FORKS    CLOUDY    28  27  93 S13       29.92F WCI  18
GRAND FORKS AF CLOUDY    28  28 100 S16       29.91F WCI  16
DEVILS LAKE    CLOUDY    27  19  74 SE10      29.81F WCI  17
FARGO          CLOUDY    32  28  85 S15G22    29.95F FOG
CANDO          CLOUDY    25  25 100 SE5       29.82F FOG     WCI  19
CAVALIER       CLOUDY    27  27 100 S10       29.89F FOG     WCI  17
GWINNER        CLOUDY    32  32 100 MISG      29.93S
LANGDON        FOG       25  23  93 N5        29.83S VSB 1/2 WCI  19
ROLLA          CLOUDY    25  25 100 MISG      29.80S FOG
WALHALLA         N/A     27  27 100 S13       29.88F FOG     WCI  16
$$

CITY           SKY/WX    TMP DP  RH WIND       PRES   REMARKS
ABERDEEN       CLOUDY    29  26  89 S12       29.92F FOG     WCI  19
MOBRIDGE       MOCLDY    28  26  92 SE9       29.83S WCI  19
BUFFALO          N/A     35  24  64 SW13      29.78F
RAPID CITY     MOCLDY    36  26  67 E3        29.87F
GLASGOW        PTCLDY    34  24  67 SW8       29.75F
SIDNEY         MOCLDY    36  27  69 SW6       29.81R
WOLF POINT     PTCLDY    37  25  61 SW6       29.78S
GLENDIVE       PTCLDY    36  23  60 W3        29.81F
MILES CITY     PTCLDY    40  23  50 S6        29.81F
BAKER          PTCLDY    33  25  72 SW8       29.82F
$$

CITY           SKY/WX    TMP DP  RH WIND       PRES   REMARKS
BILLINGS       MOCLDY    36  25  64 S9        29.82F
GREAT FALLS    MOCLDY    37  25  61 SW9       29.72F
REGINA         CLOUDY    30  30 100 W8        29.70S
ESTEVAN        MOCLDY    28  27  93 S3        29.73S
$$



USA.gov is the U.S. government's official web portal to all federal, state and local government web resources and services.